| time (UTC) | temp F | wind direction | speed knots | gust knots | rain 1hr in | rain 24hr in | rain mn in | humidity % | barometer mb |
| 20260507060058 | 55 | 0 | 0.0 | 0.0 | 0.00 | 0.05 | 0.00 | 75 | 1017.5 |
| 20260507054603 | 55 | 0 | 0.0 | 0.0 | 0.00 | 0.05 | 0.00 | 75 | 1017.4 |
| 20260507053052 | 55 | 0 | 0.0 | 0.0 | 0.00 | 0.05 | 0.00 | 75 | 1017.5 |
| 20260507051555 | 55 | 0 | 0.0 | 0.0 | 0.00 | 0.05 | 0.00 | 75 | 1017.5 |
| 20260507050052 | 56 | 0 | 0.0 | 0.0 | 0.00 | 0.05 | 0.00 | 75 | 1017.2 |
| 20260507044552 | 56 | 0 | 0.0 | 0.0 | 0.00 | 0.05 | 0.05 | 75 | 1017.2 |
| 20260507043059 | 56 | 0 | 0.0 | 0.0 | 0.00 | 0.05 | 0.05 | 74 | 1017.4 |
| 20260507041603 | 57 | 0 | 0.0 | 0.0 | 0.00 | 0.05 | 0.05 | 74 | 1017.2 |
| 20260507040057 | 57 | 0 | 0.0 | 0.0 | 0.00 | 0.05 | 0.05 | 74 | 1016.8 |
| 20260507034555 | 57 | 0 | 0.0 | 0.0 | 0.00 | 0.05 | 0.05 | 74 | 1016.6 |
| 20260507033055 | 58 | 0 | 0.9 | 2.6 | 0.00 | 0.05 | 0.05 | 74 | 1016.5 |
| 20260507031550 | 58 | 103 | 0.9 | 3.5 | 0.00 | 0.05 | 0.05 | 74 | 1016.3 |
| 20260507030058 | 58 | 71 | 0.9 | 2.6 | 0.00 | 0.05 | 0.05 | 74 | 1016.0 |
| 20260507024552 | 59 | 86 | 1.7 | 5.2 | 0.00 | 0.05 | 0.05 | 74 | 1015.9 |
| 20260507023111 | 59 | 94 | 1.7 | 5.2 | 0.00 | 0.05 | 0.05 | 74 | 1015.5 |
| 20260507021556 | 60 | 94 | 0.9 | 3.5 | 0.00 | 0.05 | 0.05 | 74 | 1015.5 |
| 20260507020056 | 60 | 110 | 1.7 | 3.5 | 0.00 | 0.05 | 0.05 | 75 | 1015.2 |
| 20260507014607 | 61 | 114 | 0.9 | 3.5 | 0.00 | 0.05 | 0.05 | 75 | 1015.2 |
| 20260507013113 | 61 | 139 | 0.9 | 1.7 | 0.00 | 0.05 | 0.05 | 75 | 1015.2 |
| 20260507011600 | 63 | 117 | 1.7 | 3.5 | 0.00 | 0.05 | 0.05 | 75 | 1015.2 |
| 20260507010055 | 64 | 112 | 0.9 | 3.5 | 0.00 | 0.05 | 0.05 | 75 | 1014.8 |
| 20260507004553 | 65 | 69 | 2.6 | 5.2 | 0.00 | 0.05 | 0.05 | 76 | 1014.7 |
| 20260507003050 | 65 | 73 | 2.6 | 6.1 | 0.00 | 0.05 | 0.05 | 76 | 1014.7 |
| 20260507001612 | 66 | 36 | 2.6 | 4.3 | 0.00 | 0.05 | 0.05 | 76 | 1014.6 |
| 20260507000058 | 66 | 22 | 2.6 | 10.4 | 0.00 | 0.05 | 0.05 | 76 | 1014.4 |
| 20260506234553 | 66 | 111 | 3.5 | 7.0 | 0.00 | 0.05 | 0.05 | 76 | 1014.4 |
| 20260506233102 | 66 | 82 | 3.5 | 7.0 | 0.00 | 0.05 | 0.05 | 77 | 1014.3 |
| 20260506231554 | 66 | 65 | 3.5 | 5.2 | 0.00 | 0.05 | 0.05 | 77 | 1014.2 |
| 20260506230057 | 66 | 64 | 1.7 | 5.2 | 0.00 | 0.05 | 0.05 | 77 | 1014.1 |
| 20260506224552 | 65 | 336 | 3.5 | 7.0 | 0.00 | 0.05 | 0.05 | 77 | 1013.9 |
| 20260506223105 | 65 | 30 | 1.7 | 4.3 | 0.00 | 0.05 | 0.05 | 77 | 1014.0 |
| 20260506221603 | 65 | 63 | 0.9 | 5.2 | 0.00 | 0.05 | 0.05 | 77 | 1013.9 |
| 20260506220055 | 65 | 0 | 0.0 | 6.1 | 0.00 | 0.05 | 0.05 | 77 | 1014.0 |
| 20260506214604 | 65 | 65 | 2.6 | 5.2 | 0.00 | 0.05 | 0.05 | 77 | 1014.1 |
| 20260506213051 | 64 | 30 | 3.5 | 7.8 | 0.00 | 0.05 | 0.05 | 77 | 1014.2 |
| 20260506211555 | 64 | 36 | 2.6 | 7.0 | 0.00 | 0.05 | 0.05 | 77 | 1014.2 |
| 20260506210053 | 63 | 270 | 0.0 | 7.0 | 0.00 | 0.05 | 0.05 | 77 | 1014.4 |
| 20260506204553 | 62 | 25 | 1.7 | 5.2 | 0.00 | 0.05 | 0.05 | 77 | 1014.6 |
| 20260506203100 | 62 | 354 | 2.6 | 7.0 | 0.00 | 0.05 | 0.05 | 77 | 1015.1 |
| 20260506201551 | 61 | 18 | 3.5 | 6.1 | 0.00 | 0.05 | 0.05 | 76 | 1015.3 |
| 20260506200137 | 60 | 335 | 3.5 | 7.0 | 0.00 | 0.05 | 0.05 | 76 | 1015.2 |
| 20260506194600 | 59 | 6 | 4.3 | 7.8 | 0.00 | 0.05 | 0.05 | 76 | 1015.5 |
| 20260506193052 | 59 | 314 | 2.6 | 8.7 | 0.00 | 0.05 | 0.05 | 75 | 1015.3 |
| 20260506191557 | 58 | 6 | 6.1 | 9.6 | 0.00 | 0.05 | 0.05 | 75 | 1015.7 |
| 20260506190050 | 58 | 314 | 3.5 | 6.1 | 0.00 | 0.05 | 0.05 | 75 | 1016.1 |
| 20260506184555 | 57 | 19 | 3.5 | 9.6 | 0.00 | 0.05 | 0.05 | 74 | 1016.1 |
| 20260506183055 | 57 | 354 | 4.3 | 10.4 | 0.00 | 0.05 | 0.05 | 74 | 1016.4 |
| 20260506181559 | 56 | 83 | 5.2 | 11.3 | 0.00 | 0.05 | 0.05 | 73 | 1016.4 |
| 20260506180106 | 55 | 357 | 2.6 | 7.8 | 0.00 | 0.05 | 0.05 | 73 | 1016.6 |
| 20260506174604 | 55 | 25 | 4.3 | 12.2 | 0.00 | 0.05 | 0.05 | 73 | 1016.5 |
| 20260506173116 | 54 | 328 | 3.5 | 7.8 | 0.00 | 0.05 | 0.05 | 72 | 1016.5 |
| 20260506171602 | 54 | 340 | 3.5 | 7.8 | 0.01 | 0.05 | 0.05 | 72 | 1016.5 |
| 20260506170059 | 54 | 12 | 3.5 | 7.0 | 0.01 | 0.05 | 0.05 | 72 | 1016.3 |
| 20260506164559 | 54 | 20 | 4.3 | 9.6 | 0.01 | 0.05 | 0.05 | 71 | 1016.2 |
| 20260506163108 | 54 | 323 | 3.5 | 7.0 | 0.01 | 0.05 | 0.05 | 71 | 1016.1 |
| 20260506161600 | 54 | 319 | 3.5 | 8.7 | 0.00 | 0.04 | 0.04 | 71 | 1015.8 |
| 20260506160110 | 54 | 27 | 4.3 | 8.7 | 0.00 | 0.04 | 0.04 | 70 | 1015.8 |
| 20260506154558 | 53 | 6 | 6.1 | 10.4 | 0.00 | 0.04 | 0.04 | 70 | 1015.4 |
| 20260506153053 | 53 | 23 | 3.5 | 8.7 | 0.00 | 0.04 | 0.04 | 70 | 1014.8 |
| 20260506151555 | 53 | 11 | 5.2 | 11.3 | 0.00 | 0.04 | 0.04 | 69 | 1015.0 |
| 20260506144556 | 53 | 44 | 2.6 | 7.0 | 0.03 | 0.04 | 0.04 | 69 | 1014.5 |
| 20260506143056 | 53 | 32 | 1.7 | 10.4 | 0.04 | 0.04 | 0.04 | 68 | 1014.3 |
| 20260506141555 | 52 | 305 | 0.9 | 10.4 | 0.04 | 0.04 | 0.04 | 68 | 1014.4 |
| 20260506140054 | 52 | 273 | 3.5 | 15.6 | 0.04 | 0.04 | 0.04 | 68 | 1014.9 |
| 20260506134618 | 53 | 66 | 4.3 | 8.7 | 0.01 | 0.01 | 0.01 | 68 | 1014.5 |
| 20260506133056 | 54 | 60 | 2.6 | 10.4 | 0.00 | 0.00 | 0.00 | 67 | 1015.7 |
| 20260506131608 | 54 | 335 | 5.2 | 13.0 | 0.00 | 0.00 | 0.00 | 67 | 1015.6 |
| 20260506130055 | 54 | 300 | 6.1 | 13.9 | 0.00 | 0.00 | 0.00 | 67 | 1014.2 |
| 20260506124556 | 55 | 22 | 7.8 | 13.0 | 0.00 | 0.00 | 0.00 | 67 | 1014.1 |
| 20260506123055 | 55 | 314 | 2.6 | 14.8 | 0.00 | 0.00 | 0.00 | 66 | 1014.5 |
| 20260506121605 | 56 | 349 | 5.2 | 10.4 | 0.00 | 0.00 | 0.00 | 66 | 1013.1 |
| 20260506120054 | 56 | 343 | 5.2 | 8.7 | 0.00 | 0.00 | 0.00 | 65 | 1012.9 |
| 20260506114556 | 56 | 359 | 5.2 | 9.6 | 0.00 | 0.00 | 0.00 | 65 | 1012.5 |
| 20260506113054 | 56 | 8 | 7.0 | 9.6 | 0.00 | 0.00 | 0.00 | 65 | 1012.1 |
| 20260506111610 | 57 | 34 | 6.1 | 9.6 | 0.00 | 0.00 | 0.00 | 64 | 1011.7 |
| 20260506110055 | 57 | 4 | 5.2 | 9.6 | 0.00 | 0.00 | 0.00 | 64 | 1012.1 |
| 20260506104553 | 57 | 23 | 6.1 | 10.4 | 0.00 | 0.00 | 0.00 | 63 | 1012.0 |
| 20260506103101 | 58 | 34 | 5.2 | 8.7 | 0.00 | 0.00 | 0.00 | 63 | 1011.8 |
| 20260506101557 | 58 | 335 | 4.3 | 7.8 | 0.00 | 0.00 | 0.00 | 62 | 1011.9 |
| 20260506100101 | 58 | 20 | 5.2 | 9.6 | 0.00 | 0.00 | 0.00 | 62 | 1011.4 |
| 20260506094555 | 58 | 16 | 6.1 | 10.4 | 0.00 | 0.00 | 0.00 | 61 | 1011.1 |
| 20260506093057 | 58 | 345 | 4.3 | 13.0 | 0.00 | 0.00 | 0.00 | 61 | 1010.8 |
| 20260506091552 | 59 | 348 | 3.5 | 7.0 | 0.00 | 0.00 | 0.00 | 60 | 1010.8 |
| 20260506090056 | 59 | 7 | 5.2 | 7.8 | 0.00 | 0.00 | 0.00 | 60 | 1010.7 |
| 20260506084601 | 60 | 18 | 4.3 | 9.6 | 0.00 | 0.00 | 0.00 | 59 | 1010.4 |
| 20260506083112 | 61 | 23 | 4.3 | 8.7 | 0.00 | 0.00 | 0.00 | 59 | 1010.2 |
| 20260506081554 | 61 | 359 | 3.5 | 7.0 | 0.00 | 0.00 | 0.00 | 58 | 1010.3 |
| 20260506073056 | 62 | 354 | 1.7 | 4.3 | 0.00 | 0.00 | 0.00 | 56 | 1010.1 |
| 20260506071556 | 62 | 0 | 0.0 | 0.9 | 0.00 | 0.00 | 0.00 | 55 | 1010.1 |
| 20260506070126 | 63 | 58 | 0.0 | 3.5 | 0.00 | 0.00 | 0.00 | 55 | 1010.0 |
| 20260506061553 | 65 | 25 | 0.0 | 2.6 | 0.00 | 0.00 | 0.00 | 53 | 1010.0 |